Location: Poughquag
(41.6090°N, 73.6820°W)
Time: 07:56:49
(UTC-05:00)

DIWATA 2B (PO-101) - Pass Details

Date: 20 November 2025
Orbit: 563 x 574 km, 98.1° (Epoch: 07 December)

Event Time Altitude Azimuth Distance (km) Brightness Sun altitude
Exits shadow 18:39:33 15° 353° (N) 1,592 ? -23.9°
Maximum altitude 18:42:36 40° 289° (WNW) 847 ? -24.5°
Drops below altitude 10° 18:46:21 10° 219° (SW) 1,854 ? -25.2°
Sets 18:48:34 0° 212° (SSW) 2,747 ? -25.6°
